CORVUS BC1

Last updated on Sun Jun 21 2026 00:03:50 GMT+0000 (Coordinated Universal Time)

1 42847U 17042Y 26171.44414657 .00002398 00000+0 16617-3 0 9996 2 42847 97.4109 333.4833 0013522 79.4836 280.7914 15.06483462487586
UTC large
Height (km)
Speed (km/s)
/
Latitude / Longitude
Inclination (degrees)
Orbital Period (minutes)
Azimuth
Elevation
Range (km)
Doppler Factor

Next 0 passes for location: London (51.5072 / 0.1276)

No passes found over London.
CORVUS BC1